Location: Newark
(13.8117°N, 3.6025°W)
Time: 15:48:28
(UTC+00:00)

Vanguard 2 - Pass Details

Date: 02 September 2019
Orbit: 554 x 2937 km, 32.9° (Epoch: 17 October)

Event Time Altitude Azimuth Distance (km) Brightness Sun altitude
Rises 14:44:49 0° 310° (NW) 3,466 11.3 52.6°
Reaches altitude 10° 14:47:00 10° 316° (NW) 2,741 10.9 52.1°
Maximum altitude 14:53:35 53° 32° (NNE) 1,645 9.6 50.5°
Drops below altitude 10° 15:04:38 10° 106° (ESE) 4,500 11.2 47.8°
Sets 15:09:13 0° 110° (ESE) 5,878 11.7 46.7°
